N346EA KDAY-KCMH

Flight info

Callsign N346EA
Flight time 0h 29m
Altitude 11000
Route PLUMM
Aircraft TBM9/L-SDFGRWY/S

Departure

Time 2026-05-09 00:00
Airport James M. Cox Dayton International Airport (KDAY)

Arrival

Time 2026-05-09 00:29
Airport John Glenn Columbus International Airport (KCMH)
Time Latitude Longitude Altitude Speed Heading
2026-05-08 23:45 39.91059 -84.22496 999 ft 0 kts 149°
2026-05-08 23:55 39.91058 -84.22495 999 ft 2 kts 148°
2026-05-08 23:55 39.91014 -84.22448 1000 ft 11 kts 146°
2026-05-08 23:56 39.90944 -84.22421 1002 ft 8 kts 223°
2026-05-08 23:56 39.90934 -84.22430 1003 ft 6 kts 172°
2026-05-08 23:56 39.90940 -84.22333 1001 ft 7 kts 60°
2026-05-08 23:56 39.90947 -84.22318 1001 ft 3 kts 57°
2026-05-08 23:57 39.91006 -84.22205 1001 ft 22 kts 54°
2026-05-08 23:57 39.91063 -84.22094 999 ft 9 kts 56°
2026-05-08 23:57 39.91127 -84.21981 999 ft 22 kts 55°
2026-05-08 23:57 39.91199 -84.21840 1002 ft 10 kts 58°
2026-05-08 23:58 39.91249 -84.21749 1002 ft 16 kts 54°
2026-05-08 23:58 39.91306 -84.21643 1004 ft 10 kts 47°
2026-05-08 23:58 39.91328 -84.21531 1004 ft 18 kts 127°
2026-05-08 23:58 39.91285 -84.21489 1004 ft 0 kts 149°
2026-05-08 23:59 39.91275 -84.21482 1004 ft 11 kts 147°
2026-05-08 23:59 39.91199 -84.21456 1002 ft 13 kts 199°
2026-05-08 23:59 39.91081 -84.21653 1001 ft 54 kts 237°
2026-05-08 23:59 39.90750 -84.22256 1162 ft 99 kts 234°
2026-05-09 00:00 39.90267 -84.23096 1464 ft 131 kts 236°
2026-05-09 00:00 39.89679 -84.24151 1805 ft 155 kts 235°
2026-05-09 00:00 39.89008 -84.25346 2224 ft 165 kts 236°
2026-05-09 00:00 39.88328 -84.26534 2732 ft 164 kts 235°
2026-05-09 00:01 39.87643 -84.27742 3243 ft 166 kts 235°
2026-05-09 00:01 39.86969 -84.28949 3879 ft 164 kts 235°
2026-05-09 00:01 39.86438 -84.30233 4478 ft 163 kts 259°
2026-05-09 00:01 39.86738 -84.31658 5072 ft 175 kts 302°
2026-05-09 00:02 39.87830 -84.32450 5627 ft 193 kts 344°
2026-05-09 00:02 39.89217 -84.32522 6043 ft 208 kts 353°
2026-05-09 00:02 39.90725 -84.32508 6273 ft 221 kts 354°
2026-05-09 00:02 39.92262 -84.32465 6733 ft 220 kts 354°
2026-05-09 00:03 39.93795 -84.32410 7162 ft 221 kts 354°
2026-05-09 00:03 39.95331 -84.32284 7606 ft 225 kts
2026-05-09 00:03 39.96727 -84.31258 8053 ft 241 kts 41°
2026-05-09 00:03 39.97738 -84.29477 8431 ft 247 kts 53°
2026-05-09 00:04 39.98657 -84.27617 8849 ft 247 kts 54°
2026-05-09 00:04 39.99577 -84.25718 9242 ft 248 kts 53°
2026-05-09 00:04 40.00486 -84.23797 9604 ft 250 kts 54°
2026-05-09 00:04 40.01390 -84.21845 9961 ft 252 kts 54°
2026-05-09 00:05 40.02288 -84.19879 10315 ft 253 kts 54°
2026-05-09 00:05 40.03181 -84.17896 10672 ft 254 kts 54°
2026-05-09 00:05 40.04075 -84.15895 11035 ft 256 kts 54°
2026-05-09 00:05 40.04992 -84.13835 11082 ft 270 kts 54°
2026-05-09 00:06 40.05957 -84.11669 11087 ft 280 kts 54°
2026-05-09 00:06 40.06951 -84.09445 11090 ft 286 kts 54°
2026-05-09 00:06 40.07965 -84.07184 11054 ft 291 kts 54°
2026-05-09 00:06 40.08991 -84.04904 11062 ft 293 kts 54°
2026-05-09 00:07 40.10025 -84.02594 11081 ft 295 kts 57°
2026-05-09 00:07 40.10593 -83.99997 11072 ft 304 kts 84°
2026-05-09 00:07 40.10588 -83.98160 11075 ft 305 kts 92°
2026-05-09 00:07 40.10455 -83.95389 11074 ft 306 kts 94°
2026-05-09 00:08 40.10296 -83.92614 11074 ft 306 kts 94°
2026-05-09 00:08 40.10129 -83.89848 11074 ft 306 kts 94°
2026-05-09 00:08 40.09958 -83.87064 11074 ft 306 kts 94°
2026-05-09 00:08 40.09788 -83.84295 11072 ft 306 kts 94°
2026-05-09 00:09 40.09619 -83.81525 11084 ft 306 kts 94°
2026-05-09 00:09 40.09449 -83.78757 11073 ft 306 kts 94°
2026-05-09 00:09 40.09280 -83.75988 11071 ft 306 kts 94°
2026-05-09 00:09 40.09110 -83.73220 11069 ft 306 kts 94°
2026-05-09 00:10 40.08939 -83.70448 11067 ft 306 kts 94°
2026-05-09 00:10 40.08767 -83.67682 11063 ft 305 kts 94°
2026-05-09 00:10 40.08595 -83.64915 11058 ft 305 kts 94°
2026-05-09 00:10 40.08424 -83.62154 11057 ft 305 kts 94°
2026-05-09 00:11 40.08254 -83.59426 11056 ft 305 kts 94°
2026-05-09 00:11 40.08081 -83.56668 11052 ft 305 kts 94°
2026-05-09 00:11 40.07908 -83.53904 11048 ft 305 kts 94°
2026-05-09 00:11 40.07739 -83.51141 11048 ft 305 kts 94°
2026-05-09 00:12 40.07636 -83.48384 11097 ft 304 kts 88°
2026-05-09 00:12 40.07727 -83.45624 11105 ft 304 kts 87°
2026-05-09 00:12 40.07627 -83.42860 11041 ft 306 kts 94°
2026-05-09 00:12 40.07445 -83.40045 10965 ft 314 kts 96°
2026-05-09 00:13 40.07209 -83.37186 10903 ft 318 kts 94°
2026-05-09 00:13 40.07047 -83.34297 10899 ft 318 kts 94°
2026-05-09 00:13 40.07068 -83.31419 10925 ft 316 kts 87°
2026-05-09 00:13 40.07111 -83.28531 10874 ft 319 kts 88°
2026-05-09 00:14 40.07210 -83.25652 10935 ft 316 kts 83°
2026-05-09 00:14 40.07503 -83.22774 10791 ft 319 kts 78°
2026-05-09 00:14 40.07898 -83.19920 10625 ft 320 kts 77°
2026-05-09 00:14 40.07975 -83.17256 10630 ft 269 kts 98°
2026-05-09 00:15 40.07719 -83.14981 10638 ft 245 kts 98°
2026-05-09 00:15 40.07533 -83.12836 10245 ft 245 kts 97°
2026-05-09 00:15 40.07374 -83.10490 9751 ft 266 kts 95°
2026-05-09 00:15 40.07251 -83.08039 9177 ft 272 kts 94°
2026-05-09 00:16 40.07148 -83.05558 8662 ft 272 kts 94°
2026-05-09 00:16 40.07058 -83.03138 8227 ft 269 kts 94°
2026-05-09 00:16 40.06977 -83.00717 7801 ft 266 kts 94°
2026-05-09 00:16 40.06900 -82.98318 7377 ft 263 kts 94°
2026-05-09 00:17 40.06829 -82.95947 6894 ft 260 kts 94°
2026-05-09 00:17 40.06766 -82.93600 6328 ft 256 kts 94°
2026-05-09 00:17 40.06708 -82.91328 5957 ft 251 kts 95°
2026-05-09 00:17 40.06688 -82.89025 5411 ft 256 kts 94°
2026-05-09 00:18 40.06681 -82.86701 5029 ft 252 kts 94°
2026-05-09 00:18 40.06677 -82.84483 4998 ft 237 kts 93°
2026-05-09 00:18 40.06670 -82.82310 4997 ft 244 kts 93°
2026-05-09 00:18 40.06660 -82.80074 4999 ft 248 kts 93°
2026-05-09 00:19 40.06649 -82.77803 4938 ft 249 kts 93°
2026-05-09 00:19 40.06632 -82.75525 4470 ft 252 kts 93°
2026-05-09 00:19 40.06601 -82.73250 4115 ft 249 kts 94°
2026-05-09 00:19 40.06567 -82.71022 3911 ft 241 kts 94°
2026-05-09 00:20 40.06535 -82.68906 3910 ft 235 kts 93°
2026-05-09 00:20 40.06496 -82.66736 3909 ft 243 kts 94°
2026-05-09 00:20 40.06459 -82.64511 3912 ft 246 kts 93°
2026-05-09 00:20 40.06420 -82.62280 3875 ft 242 kts 94°
2026-05-09 00:21 40.06377 -82.60070 3440 ft 245 kts 93°
2026-05-09 00:21 40.06328 -82.57860 3091 ft 242 kts 93°
2026-05-09 00:21 40.06273 -82.55709 3027 ft 235 kts 93°
2026-05-09 00:21 40.06222 -82.53627 3020 ft 222 kts 93°
2026-05-09 00:22 40.05868 -82.51726 3022 ft 214 kts 125°
2026-05-09 00:22 40.04778 -82.50519 3032 ft 203 kts 164°
2026-05-09 00:22 40.03423 -82.50397 3033 ft 192 kts 197°
2026-05-09 00:22 40.02340 -82.51272 3037 ft 183 kts 234°
2026-05-09 00:23 40.01669 -82.52671 3034 ft 182 kts 243°
2026-05-09 00:23 40.01043 -82.54104 3027 ft 183 kts 243°
2026-05-09 00:23 40.00429 -82.55543 3022 ft 184 kts 243°
2026-05-09 00:23 39.99807 -82.57003 3023 ft 184 kts 243°
2026-05-09 00:24 39.99184 -82.58463 3022 ft 184 kts 243°
2026-05-09 00:24 39.98560 -82.59930 3022 ft 185 kts 243°
2026-05-09 00:24 39.98175 -82.61506 3028 ft 183 kts 257°
2026-05-09 00:24 39.97914 -82.63135 3029 ft 183 kts 265°
2026-05-09 00:25 39.97981 -82.64796 3025 ft 187 kts 279°
2026-05-09 00:25 39.98384 -82.66467 3022 ft 195 kts 292°
2026-05-09 00:25 39.98898 -82.68068 3014 ft 189 kts 286°
2026-05-09 00:25 39.99117 -82.69738 3004 ft 186 kts 276°
2026-05-09 00:26 39.99241 -82.71390 2999 ft 179 kts 275°
2026-05-09 00:26 39.99331 -82.73013 2992 ft 180 kts 274°
2026-05-09 00:26 39.99415 -82.74637 2790 ft 176 kts 274°
2026-05-09 00:26 39.99508 -82.76219 2559 ft 174 kts 275°
2026-05-09 00:27 39.99593 -82.77786 2324 ft 172 kts 274°
2026-05-09 00:27 39.99682 -82.79338 2093 ft 172 kts 275°
2026-05-09 00:27 39.99764 -82.80849 1878 ft 159 kts 274°
2026-05-09 00:27 39.99845 -82.82209 1747 ft 141 kts 274°
2026-05-09 00:28 39.99921 -82.83453 1510 ft 136 kts 275°
2026-05-09 00:28 39.99978 -82.84627 1330 ft 118 kts 273°
2026-05-09 00:28 40.00031 -82.85578 1262 ft 99 kts 275°
2026-05-09 00:28 40.00090 -82.86447 1179 ft 97 kts 273°
2026-05-09 00:29 40.00132 -82.87314 983 ft 98 kts 272°
2026-05-09 00:29 40.00171 -82.88077 833 ft 74 kts 274°
2026-05-09 00:29 40.00199 -82.88697 819 ft 52 kts 280°
2026-05-09 00:29 40.00212 -82.88962 818 ft 6 kts 272°
2026-05-09 00:30 40.00178 -82.89014 816 ft 16 kts 196°
2026-05-09 00:30 40.00147 -82.89027 816 ft 0 kts 188°
2026-05-09 00:31 40.00148 -82.89027 816 ft 0 kts 187°
2026-05-09 00:32 40.00130 -82.89114 816 ft 19 kts 271°
2026-05-09 00:32 40.00143 -82.89316 814 ft 24 kts 274°
2026-05-09 00:32 40.00152 -82.89539 813 ft 25 kts 275°
2026-05-09 00:32 40.00168 -82.89766 815 ft 23 kts 276°
2026-05-09 00:33 40.00175 -82.89888 818 ft 6 kts 267°
2026-05-09 00:33 40.00178 -82.89989 818 ft 20 kts 277°
2026-05-09 00:33 40.00194 -82.90255 821 ft 32 kts 273°
2026-05-09 00:33 40.00190 -82.90485 821 ft 26 kts 231°
2026-05-09 00:34 40.00016 -82.90520 812 ft 29 kts 182°
2026-05-09 00:34 39.99887 -82.90528 818 ft 10 kts 181°
2026-05-09 00:34 39.99791 -82.90540 814 ft 21 kts 197°
2026-05-09 00:34 39.99649 -82.90539 813 ft 13 kts 175°
2026-05-09 00:35 39.99560 -82.90558 813 ft 12 kts 189°
2026-05-09 00:35 39.99519 -82.90468 813 ft 18 kts 94°
2026-05-09 00:35 39.99507 -82.90253 813 ft 30 kts 92°
2026-05-09 00:35 39.99488 -82.89967 817 ft 28 kts 91°
2026-05-09 00:36 39.99472 -82.89680 818 ft 36 kts 94°
2026-05-09 00:36 39.99455 -82.89387 821 ft 32 kts 96°
2026-05-09 00:36 39.99488 -82.89175 817 ft 25 kts
2026-05-09 00:36 39.99639 -82.89165 819 ft 19 kts
2026-05-09 00:37 39.99685 -82.89172 819 ft 9 kts 335°
2026-05-09 00:37 39.99702 -82.89175 820 ft 0 kts